Карточка аэропорта URKA

Внимание!
Информация на этой странице в стадии наполнения.
Если вы не увидели какой-то информации, или заметили неточность - пожалуйста сообщите нам!
Спасибо!
Команда RU-STAFF
Название аэропортаВитязево
Название аэропорта (англ.)Vityazevo
Превышение176 ft. (53.6 m.)
Координаты45°0.13200000000012', 37°20.832'
Высота перехода4000 ft
Эшелон переходаFL50 (QNH >= 1013); FL60 (QNH 977-1012); FL70 (QNH < 977)
Коды ответчика1040-1047
Зона ОрВДРостов-на-Дону РПИ (URRV)
Данные METARURKA 190200Z 06003MPS CAVOK 23/17 Q1008 R03/010070 NOSIG RMK QFE752/1003
Проноз погоды (TAF)URKA 182256Z 1900/1924 05003G08MPS CAVOK TEMPO 1909/1918 34007G12MPS
NOTAMshow/hide NOTAM
AWOS   TABLE

Информация о ВПП

ВПП Длина ВПП (м.) Покрытие Курс ВПП Частота ILS
042500Цементобетон36109.1
222500Цементобетон216 

Диспетчерские позиции

Позывной Наименование органа УВД Частота
URKAFM1119,0
URKA_GNDАнапа-Руление119.0
URKA_R_APPАнапа-Круг118.7
URKA_TWRАнапа-Старт119.8



Спутниковое изображение